This is the latest recevied weather packets stored in our database for station/object NK7E-2. If no packets are shown the sender has not sent any weather packets the latest 10 day(s).
| Time | Temp. | Humidity | Pressure | Rain* | Wind** | Luminosity | Snow |
|---|---|---|---|---|---|---|---|
| 1777314916 | 21.67° C | 18% | 1020.6 hPa | 0 mm | - | - | - |
| 1777314316 | 21.11° C | 19% | 1020.6 hPa | 0 mm | - | - | - |
| 1777313716 | 21.11° C | 17% | 1020.6 hPa | 0 mm | - | - | - |
| 1777313116 | 21.11° C | 19% | 1020.3 hPa | 0 mm | - | - | - |
| 1777312516 | 20.56° C | 20% | 1020.8 hPa | 0 mm | - | - | - |
| 1777311916 | 20° C | 22% | 1020.8 hPa | 0 mm | - | - | - |
| 1777311316 | 20° C | 25% | 1021 hPa | 0 mm | - | - | - |
| 1777310716 | 19.44° C | 26% | 1020.8 hPa | 0 mm | - | - | - |
| 1777310116 | 19.44° C | 25% | 1020.8 hPa | 0 mm | - | - | - |
| 1777309516 | 19.44° C | 25% | 1020.7 hPa | 0 mm | - | - | - |
| 1777308916 | 18.89° C | 26% | 1020.6 hPa | 0 mm | - | - | - |
| 1777308316 | 18.33° C | 29% | 1020.7 hPa | 0 mm | - | - | - |
| 1777307716 | 18.33° C | 29% | 1020.8 hPa | 0 mm | - | - | - |
| 1777307116 | 17.78° C | 32% | 1020.7 hPa | 0 mm | - | - | - |
| 1777306516 | 17.78° C | 33% | 1020.6 hPa | 0 mm | - | - | - |
| 1777305916 | 17.22° C | 34% | 1020.8 hPa | 0 mm | - | - | - |
| 1777305316 | 16.67° C | 35% | 1020.4 hPa | 0 mm | - | - | - |
| 1777304716 | 16.67° C | 35% | 1020.3 hPa | 0 mm | - | - | - |
| 1777304116 | 16.67° C | 35% | 1020.6 hPa | 0 mm | - | - | - |
| 1777303516 | 16.11° C | 35% | 1020.5 hPa | 0 mm | - | - | - |
| 1777302916 | 16.67° C | 35% | 1020.5 hPa | 0 mm | - | - | - |
| 1777302316 | 16.11° C | 36% | 1020.3 hPa | 0 mm | - | - | - |
| 1777301716 | 16.11° C | 36% | 1020.3 hPa | 0 mm | - | - | - |
| 1777301118 | 16.11° C | 35% | 1020.4 hPa | 0 mm | - | - | - |
| 1777300518 | 15.56° C | 37% | 1020.3 hPa | 0 mm | - | - | - |
* Rain latest hour (hover to see other rain measurements)
** Current wind speed in m/s (hover to see current wind gust speed)